This demonstration page uses our WeatherBlox Daily Observations layout. Learn more.

Left ArrowRight Arrow

36.17497, -115.13722

Hourly Observations for June 17, 2019

Temp ( °F °C ) Dew Point ( °F °C ) Humidity (%) Winds ( mph kmh ) Pressure ( in mb ) Visibility ( mi km ) Precip ( " mm )
12:53 am 00:53 Clear 79 26.1 47 8.3 32 32 ESE 6 9 29.80 1009 10 16 0.00 0.00
1:53 am 01:53 Clear 79 26.1 48 8.9 34 34 SW 7 11 29.78 1009 10 16 0.00 0.00
2:53 am 02:53 Clear 78 25.6 48 8.9 35 35 S 7 11 29.78 1009 10 16 0.00 0.00
3:53 am 03:53 Clear 77 25 49 9.4 37 37 S 6 9 29.78 1009 10 16 0.00 0.00
4:53 am 04:53 Clear 76 24.4 49 9.4 39 39 S 5 7 29.79 1009 10 16 0.00 0.00
5:53 am 05:53 Sunny 76 24.4 49 9.4 39 39 NW 6 9 29.81 1010 10 16 0.00 0.00
6:53 am 06:53 Sunny 77 25 49 9.4 37 37 W 5 7 29.83 1010 10 16 0.00 0.00
7:53 am 07:53 Sunny 79 26.1 49 9.4 35 35 SSW 5 7 29.84 1011 10 16 0.00 0.00
8:53 am 08:53 Sunny 81 27.2 48 8.9 32 32 S 3 6 29.85 1011 10 16 0.00 0.00
9:53 am 09:53 Sunny 84 28.9 48 8.9 29 29 SE 3 6 29.85 1011 10 16 0.00 0.00
10:53 am 10:53 Sunny 86 30 47 8.3 26 26 VRB 5 7 29.84 1011 10 16 0.00 0.00
11:53 am 11:53 Sunny 90 32.2 46 7.8 22 22 NE 6 9 29.83 1010 10 16 0.00 0.00
12:53 pm 12:53 Sunny 91 32.8 46 7.8 21 21 VRB 5 7 29.81 1010 10 16 0.00 0.00
1:22 pm 13:22 Sunny with Nearby Thunderstorms 93 33.9 45 7.2 19 19 ESE 9 15 29.64 1004 10 16 0.00 0.00
1:44 pm 13:44 Sunny 94 34.4 40 4.4 15 15 SSE 8 13 29.63 1003 10 16 0.00 0.00
1:53 pm 13:53 Sunny 94 34.4 40 4.4 15 15 S 10 17 29.77 1008 10 16 0.00 0.00
2:53 pm 14:53 Sunny 96 35.6 31 -0.6 10 10 SSE 8 13 29.76 1008 10 16 0.00 0.00
3:37 pm 15:37 Sunny with Nearby Thunderstorms 97 36.1 31 -0.6 10 10 NE 9 15 29.58 1002 10 16 0.00 0.00
3:53 pm 15:53 Sunny with Nearby Thunderstorms 97 36.1 32 0 10 10 VRB 3 6 29.74 1007 10 16 0.00 0.00
4:21 pm 16:21 Sunny 96 35.6 31 -0.6 10 10 VRB 7 11 29.57 1001 10 16 0.00 0.00
4:53 pm 16:53 Sunny 96 35.6 30 -1.1 10 10 E 6 9 29.73 1007 10 16 0.00 0.00
5:53 pm 17:53 Sunny 96 35.6 27 -2.8 8 8 E 5 7 29.72 1006 10 16 0.00 0.00
6:53 pm 18:53 Sunny 95 35 26 -3.3 8 8 NE 5 7 29.73 1007 10 16 0.00 0.00
7:53 pm 19:53 Sunny 95 35 27 -2.8 9 9 NNE 3 6 29.75 1007 10 16 0.00 0.00
8:53 pm 20:53 Clear 92 33.3 31 -0.6 11 11 N 5 7 29.76 1008 10 16 0.00 0.00
9:53 pm 21:53 Clear 90 32.2 38 3.3 16 16 E 15 24 29.81 1010 10 16 0.00 0.00
10:53 pm 22:53 Clear 87 30.6 44 6.7 22 22 NNW 13 20 29.84 1010 10 16 0.00 0.00
11:53 pm 23:53 Clear 85 29.4 44 6.7 24 24 N 10 17 29.83 1010 10 16 0.00 0.00

Powered by AerisWeather